Location: Luz Observatory
(34.5000°N, 117.2833°W)
Time: 05:22:13
(UTC-07:00)

Cosmos 1484 Rocket - Visible Passes

Search period start: 02 August 2015 00:00
Search period end: 12 August 2015 00:00
Orbit: 511 x 566 km, 97.4° (Epoch: 02 August)

Date Brightness Start Highest point End Pass type
(mag) Time Alt. Az. Time Alt. Az. Time Alt. Az.
06 Aug 5.8 20:52:53 10° WSW 20:54:43 13° W 20:56:22 10° WNW visible
07 Aug 5.6 20:44:25 10° SW 20:46:55 16° W 20:49:16 10° NW visible
08 Aug 5.5 20:36:11 10° SW 20:39:07 20° W 20:41:58 10° NW visible
09 Aug 5.2 20:28:06 10° SSW 20:31:19 25° W 20:34:33 10° NW visible
10 Aug 4.8 20:20:06 10° SSW 20:23:33 31° W 20:27:03 10° NNW visible
11 Aug 4.3 20:12:10 10° SSW 20:15:47 39° W 20:19:30 10° NNW visible
